Change the Weather History Date:

Wednesday, March 20, 2013

  Actual Average Record
Temperature  
Mean Temperature 21 °F -  
Max Temperature 25 °F 37 °F 55 °F (1998)
Min Temperature 17 °F 26 °F 10 °F (2001)
Degree Days  
Heating Degree Days 44    
Moisture  
Dew Point -8 °F    
Average Humidity 28    
Maximum Humidity 34    
Minimum Humidity 22    
Precipitation  
Precipitation 0.00 in - - ()
Sea Level Pressure  
Sea Level Pressure 29.84 in    
Wind  
Wind Speed 14 mph (NNE)    
Max Wind Speed 22 mph    
Max Gust Speed 31 mph    
Visibility 10 miles    
Events      
Averages and records for this station are not official NWS values.
T = Trace of Precipitation, MM = Missing Value Source: NWS Daily Summary

Daily Weather History Graph

Daily Weather History Graph

Search for Another Location

Airport or City:

Trip Planner

Search our weather history database for the weather conditions in past years. The results will help you decide how hot, cold, wet, or windy it might be!

Date:

Astronomy

Mar. 20, 2013 Rise Set
Actual Time 7:01 AM AKDT 7:16 PM AKDT
Civil Twilight 6:20 AM AKDT 7:57 PM AKDT
Nautical Twilight 5:31 AM AKDT 8:47 PM AKDT
Astronomical Twilight 4:38 AM AKDT 9:40 PM AKDT
Moon 11:39 AM AKDT (3/20) 4:07 AM AKDT (3/20)
Length of Visible Light 13h 37m
Length of Day
12h 15m
First Quarter, 60% of the Moon is Illuminated
Mar 20
First Quarter
Mar 27
Full
Apr 2
Last Quarter
Apr 10
New
Apr 18
First Quarter

Hourly Weather History & Observations

Time (AKDT) Temp. Windchill Dew Point Humidity Pressure Visibility Wind Dir Wind Speed Gust Speed Precip Events Conditions
12:53 AM 21.9 °F 9.2 °F -2.9 °F 34% 29.81 in 10.0 mi NNE 13.8 mph - N/A   Partly Cloudy
1:53 AM 21.0 °F 8.6 °F -5.1 °F 32% 29.81 in 10.0 mi NNE 12.7 mph 21.9 mph N/A   Clear
2:53 AM 19.9 °F 7.3 °F -5.1 °F 33% 29.81 in 10.0 mi NNE 12.7 mph 20.7 mph N/A   Clear
3:53 AM 19.0 °F 5.0 °F -7.1 °F 31% 29.82 in 10.0 mi NNE 15.0 mph 20.7 mph N/A   Clear
4:53 AM 18.0 °F 5.4 °F -7.1 °F 33% 29.82 in 10.0 mi North 11.5 mph 21.9 mph N/A   Clear
5:53 AM 18.0 °F 3.6 °F -7.1 °F 33% 29.83 in 10.0 mi NNE 15.0 mph 21.9 mph N/A   Clear
6:53 AM 17.1 °F 1.5 °F -7.1 °F 34% 29.83 in 10.0 mi North 17.3 mph 20.7 mph N/A   Clear
7:53 AM 17.1 °F 3.6 °F -8.0 °F 33% 29.84 in 10.0 mi NNE 12.7 mph 19.6 mph N/A   Clear
8:53 AM 17.1 °F 5.0 °F -9.9 °F 30% 29.84 in 10.0 mi North 10.4 mph 18.4 mph N/A   Clear
9:53 AM 18.0 °F 1.7 °F -9.0 °F 30% 29.83 in 10.0 mi NE 19.6 mph 27.6 mph N/A   Clear
10:53 AM 19.9 °F 4.3 °F -9.9 °F 26% 29.83 in 10.0 mi NE 19.6 mph 29.9 mph N/A   Clear
11:53 AM 21.0 °F 5.0 °F -9.0 °F 26% 29.83 in 10.0 mi NE 21.9 mph 26.5 mph N/A   Clear
12:53 PM 21.9 °F 6.5 °F -9.9 °F 24% 29.83 in 10.0 mi NE 20.7 mph 28.8 mph N/A   Clear
1:53 PM 23.0 °F 9.2 °F -9.0 °F 24% 29.83 in 10.0 mi NE 17.3 mph 31.1 mph N/A   Clear
2:53 PM 24.1 °F 11.5 °F -9.0 °F 23% 29.83 in 10.0 mi NNE 15.0 mph 26.5 mph N/A   Clear
3:53 PM 25.0 °F 12.6 °F -9.0 °F 22% 29.83 in 10.0 mi NNE 15.0 mph 23.0 mph N/A   Clear
4:53 PM 25.0 °F 15.5 °F -8.0 °F 23% 29.83 in 10.0 mi NE 9.2 mph 16.1 mph N/A   Clear
5:53 PM 21.9 °F 11.0 °F -9.9 °F 24% 29.83 in 10.0 mi NNE 10.4 mph 21.9 mph N/A   Clear
6:53 PM 21.0 °F 9.3 °F -9.0 °F 26% 29.84 in 10.0 mi NNE 11.5 mph 24.2 mph N/A   Clear
7:53 PM 19.9 °F 10.1 °F -8.0 °F 29% 29.86 in 10.0 mi NNE 8.1 mph 16.1 mph N/A   Clear
8:53 PM 19.9 °F 9.3 °F -8.0 °F 29% 29.88 in 10.0 mi North 9.2 mph 17.3 mph N/A   Clear
10:53 PM 19.0 °F 6.1 °F -9.9 °F 27% 29.91 in 10.0 mi NNE 12.7 mph 20.7 mph N/A   Clear
11:53 PM 19.0 °F 5.6 °F -9.9 °F 27% 29.92 in 10.0 mi NNE 13.8 mph - N/A   Clear